TimeCST,TemperatureF,Dew PointF,Humidity,Sea Level PressureIn,VisibilityMPH,Wind Direction,Wind SpeedMPH,Gust SpeedMPH,PrecipitationIn,Events,Conditions,WindDirDegrees,DateUTC
12:53 AM,33.1,28.9,85,30.29,10.0,NNE,5.8,-,N/A,,Clear,20,2012-12-12 06:53:00
1:53 AM,30.9,28.0,89,30.29,10.0,NNE,4.6,-,N/A,,Clear,20,2012-12-12 07:53:00
2:53 AM,33.1,30.0,89,30.29,10.0,North,5.8,-,N/A,,Clear,10,2012-12-12 08:53:00
3:53 AM,33.1,30.0,89,30.29,10.0,NNE,5.8,-,N/A,,Clear,20,2012-12-12 09:53:00
4:53 AM,30.9,28.0,89,30.30,10.0,North,6.9,-,N/A,,Clear,10,2012-12-12 10:53:00
5:53 AM,30.0,28.0,92,30.32,10.0,North,6.9,-,N/A,,Clear,360,2012-12-12 11:53:00
6:53 AM,30.0,27.0,88,30.34,10.0,NNE,4.6,-,N/A,,Clear,30,2012-12-12 12:53:00
7:53 AM,30.9,28.0,89,30.37,10.0,North,3.5,-,N/A,,Clear,360,2012-12-12 13:53:00
8:53 AM,37.0,30.9,79,30.39,10.0,NNE,5.8,-,N/A,,Clear,20,2012-12-12 14:53:00
9:53 AM,41.0,33.1,73,30.40,10.0,North,6.9,-,N/A,,Clear,10,2012-12-12 15:53:00
10:53 AM,46.0,32.0,58,30.39,10.0,NNE,8.1,-,N/A,,Clear,30,2012-12-12 16:53:00
11:53 AM,48.9,30.9,50,30.37,10.0,NNE,8.1,-,N/A,,Clear,20,2012-12-12 17:53:00
12:53 PM,50.0,25.0,38,30.35,10.0,North,9.2,-,N/A,,Clear,360,2012-12-12 18:53:00
1:53 PM,51.1,28.0,41,30.34,10.0,North,9.2,-,N/A,,Clear,10,2012-12-12 19:53:00
2:53 PM,51.1,26.1,38,30.32,10.0,NNE,8.1,-,N/A,,Clear,20,2012-12-12 20:53:00
3:53 PM,50.0,27.0,41,30.31,10.0,NE,8.1,-,N/A,,Clear,40,2012-12-12 21:53:00
4:53 PM,45.0,32.0,60,30.33,10.0,North,5.8,-,N/A,,Clear,360,2012-12-12 22:53:00
5:53 PM,42.1,30.9,65,30.34,10.0,North,3.5,-,N/A,,Clear,360,2012-12-12 23:53:00
6:53 PM,39.9,28.0,63,30.35,10.0,NNW,5.8,-,N/A,,Clear,340,2012-12-13 00:53:00
7:53 PM,37.0,26.1,65,30.35,10.0,NNE,6.9,-,N/A,,Clear,20,2012-12-13 01:53:00
8:53 PM,37.9,30.0,73,30.35,10.0,North,4.6,-,N/A,,Clear,350,2012-12-13 02:53:00
9:53 PM,34.0,28.0,79,30.37,10.0,Calm,Calm,-,N/A,,Clear,0,2012-12-13 03:53:00
10:53 PM,34.0,28.0,79,30.36,10.0,NNE,3.5,-,N/A,,Clear,20,2012-12-13 04:53:00
11:53 PM,33.1,27.0,78,30.37,10.0,North,5.8,-,N/A,,Clear,350,2012-12-13 05:53:00